CMP331 MPTO-SKBQ

Flight info

Callsign CMP331
Flight time 0h 52m
Altitude 33000
Route EGETA DCT SIROT UM525 BITIX DCT VARON VARON2C
Aircraft B38M/M-SDE1FGHILORVWXY/HB1

Departure

Time 2026-04-26 01:19
Airport Tocumen International Airport (MPTO)

Arrival

Time 2026-04-26 02:11
Airport Ernesto Cortissoz International Airport (SKBQ)
Time Latitude Longitude Altitude Speed Heading
2026-04-26 00:55 9.06830 -79.38451 33 ft 0 kts 258°
2026-04-26 01:08 9.06831 -79.38450 33 ft 1 kts 258°
2026-04-26 01:08 9.06835 -79.38429 33 ft 4 kts 258°
2026-04-26 01:08 9.06840 -79.38406 33 ft 3 kts 258°
2026-04-26 01:09 9.06844 -79.38387 33 ft 4 kts 255°
2026-04-26 01:09 9.06850 -79.38372 33 ft 4 kts 194°
2026-04-26 01:09 9.06860 -79.38376 33 ft 4 kts 159°
2026-04-26 01:09 9.06875 -79.38382 33 ft 0 kts 159°
2026-04-26 01:11 9.06871 -79.38379 33 ft 1 kts 142°
2026-04-26 01:13 9.06870 -79.38378 33 ft 1 kts 142°
2026-04-26 01:14 9.06830 -79.38377 33 ft 13 kts 190°
2026-04-26 01:14 9.06700 -79.38439 32 ft 26 kts 206°
2026-04-26 01:14 9.06528 -79.38530 32 ft 29 kts 210°
2026-04-26 01:14 9.06339 -79.38624 32 ft 31 kts 204°
2026-04-26 01:15 9.06142 -79.38730 32 ft 33 kts 210°
2026-04-26 01:15 9.06008 -79.38809 32 ft 34 kts 210°
2026-04-26 01:15 9.05807 -79.38926 32 ft 24 kts 210°
2026-04-26 01:15 9.05665 -79.38995 32 ft 9 kts 175°
2026-04-26 01:16 9.05605 -79.38975 32 ft 9 kts 189°
2026-04-26 01:16 9.05541 -79.39000 32 ft 10 kts 216°
2026-04-26 01:16 9.05471 -79.39041 32 ft 13 kts 207°
2026-04-26 01:16 9.05379 -79.39088 32 ft 16 kts 206°
2026-04-26 01:17 9.05271 -79.39145 32 ft 18 kts 217°
2026-04-26 01:17 9.05153 -79.39215 33 ft 21 kts 207°
2026-04-26 01:17 9.05025 -79.39299 33 ft 23 kts 213°
2026-04-26 01:17 9.04932 -79.39358 33 ft 25 kts 205°
2026-04-26 01:18 9.04780 -79.39286 34 ft 20 kts 103°
2026-04-26 01:18 9.04873 -79.39198 34 ft 51 kts 30°
2026-04-26 01:18 9.05488 -79.38849 33 ft 148 kts 29°
2026-04-26 01:18 9.06628 -79.38207 65 ft 222 kts 28°
2026-04-26 01:19 9.07536 -79.37688 630 ft 223 kts 33°
2026-04-26 01:19 9.08739 -79.36777 2167 ft 220 kts 37°
2026-04-26 01:19 9.10012 -79.35783 2951 ft 240 kts 38°
2026-04-26 01:19 9.11319 -79.34773 3890 ft 247 kts 37°
2026-04-26 01:20 9.12706 -79.33709 4943 ft 251 kts 37°
2026-04-26 01:20 9.14049 -79.32685 5902 ft 255 kts 37°
2026-04-26 01:20 9.15951 -79.31239 7279 ft 259 kts 36°
2026-04-26 01:20 9.16919 -79.30504 8110 ft 259 kts 36°
2026-04-26 01:21 9.18377 -79.29397 9188 ft 265 kts 36°
2026-04-26 01:21 9.19844 -79.28283 10218 ft 269 kts 36°
2026-04-26 01:21 9.21358 -79.27134 11177 ft 276 kts 36°
2026-04-26 01:21 9.22950 -79.25926 11733 ft 299 kts 36°
2026-04-26 01:22 9.24669 -79.24622 11797 ft 318 kts 36°
2026-04-26 01:22 9.26485 -79.23243 11841 ft 333 kts 36°
2026-04-26 01:22 9.28353 -79.21825 11923 ft 339 kts 36°
2026-04-26 01:22 9.30255 -79.20381 11981 ft 343 kts 36°
2026-04-26 01:23 9.32167 -79.18930 12004 ft 344 kts 36°
2026-04-26 01:23 9.34078 -79.17478 12009 ft 344 kts 36°
2026-04-26 01:23 9.35990 -79.16026 12011 ft 344 kts 36°
2026-04-26 01:23 9.37880 -79.14590 12015 ft 344 kts 36°
2026-04-26 01:24 9.39794 -79.13137 12004 ft 344 kts 36°
2026-04-26 01:24 9.41708 -79.11682 12003 ft 344 kts 36°
2026-04-26 01:24 9.43621 -79.10229 12003 ft 344 kts 36°
2026-04-26 01:24 9.45528 -79.08766 12013 ft 346 kts 38°
2026-04-26 01:25 9.47039 -79.06879 12739 ft 347 kts 61°
2026-04-26 01:25 9.47933 -79.04594 13713 ft 352 kts 70°
2026-04-26 01:25 9.48712 -79.02222 14462 ft 359 kts 71°
2026-04-26 01:25 9.49472 -78.99836 15263 ft 362 kts 71°
2026-04-26 01:26 9.50237 -78.97390 16041 ft 367 kts 71°
2026-04-26 01:26 9.51003 -78.94908 16760 ft 372 kts 71°
2026-04-26 01:26 9.51774 -78.92391 17502 ft 376 kts 71°
2026-04-26 01:26 9.52541 -78.89884 18507 ft 368 kts 71°
2026-04-26 01:27 9.53286 -78.87449 19575 ft 356 kts 71°
2026-04-26 01:27 9.54010 -78.85082 20566 ft 349 kts 71°
2026-04-26 01:27 9.54732 -78.82725 21306 ft 351 kts 71°
2026-04-26 01:27 9.55456 -78.80353 21971 ft 354 kts 72°
2026-04-26 01:28 9.56177 -78.77992 22615 ft 357 kts 72°
2026-04-26 01:28 9.56913 -78.75581 23262 ft 359 kts 72°
2026-04-26 01:28 9.57654 -78.73153 23813 ft 363 kts 72°
2026-04-26 01:28 9.58404 -78.70699 24307 ft 366 kts 72°
2026-04-26 01:29 9.59158 -78.68227 24812 ft 369 kts 72°
2026-04-26 01:29 9.59923 -78.65721 25219 ft 375 kts 72°
2026-04-26 01:29 9.60696 -78.63186 25691 ft 379 kts 72°
2026-04-26 01:29 9.61468 -78.60653 26129 ft 383 kts 72°
2026-04-26 01:30 9.62259 -78.58058 26563 ft 388 kts 72°
2026-04-26 01:30 9.63259 -78.55527 27089 ft 387 kts 58°
2026-04-26 01:30 9.64865 -78.53340 27606 ft 389 kts 50°
2026-04-26 01:30 9.66556 -78.51196 28101 ft 390 kts 51°
2026-04-26 01:31 9.68273 -78.49062 28639 ft 390 kts 50°
2026-04-26 01:31 9.70003 -78.46942 29170 ft 391 kts 50°
2026-04-26 01:31 9.71745 -78.44826 29695 ft 391 kts 49°
2026-04-26 01:31 9.73495 -78.42711 30172 ft 391 kts 50°
2026-04-26 01:32 9.75220 -78.40631 30580 ft 391 kts 50°
2026-04-26 01:32 9.76973 -78.38519 31005 ft 391 kts 50°
2026-04-26 01:32 9.78724 -78.36410 31442 ft 391 kts 50°
2026-04-26 01:32 9.80475 -78.34301 31862 ft 390 kts 51°
2026-04-26 01:33 9.82224 -78.32194 32272 ft 390 kts 51°
2026-04-26 01:33 9.83970 -78.30090 32673 ft 390 kts 51°
2026-04-26 01:33 9.85717 -78.27984 32979 ft 392 kts 51°
2026-04-26 01:33 9.87469 -78.25872 33024 ft 389 kts 51°
2026-04-26 01:34 9.90917 -78.21715 33022 ft 387 kts 51°
2026-04-26 01:34 9.94379 -78.17539 33024 ft 387 kts 51°
2026-04-26 01:35 9.97843 -78.13360 33022 ft 387 kts 51°
2026-04-26 01:35 10.01313 -78.09171 33023 ft 389 kts 50°
2026-04-26 01:36 10.04780 -78.04984 33028 ft 390 kts 50°
2026-04-26 01:37 10.10013 -77.98662 33028 ft 390 kts 51°
2026-04-26 01:37 10.13505 -77.94443 33024 ft 391 kts 50°
2026-04-26 01:38 10.17001 -77.90214 33024 ft 391 kts 50°
2026-04-26 01:38 10.20473 -77.86014 33024 ft 391 kts 50°
2026-04-26 01:39 10.23968 -77.81786 33025 ft 391 kts 50°
2026-04-26 01:39 10.27461 -77.77557 33025 ft 391 kts 50°
2026-04-26 01:40 10.30955 -77.73326 33020 ft 391 kts 50°
2026-04-26 01:40 10.34452 -77.69091 33024 ft 391 kts 50°
2026-04-26 01:41 10.37926 -77.64881 33025 ft 392 kts 50°
2026-04-26 01:41 10.41428 -77.60634 32939 ft 392 kts 50°
2026-04-26 01:42 10.44928 -77.56389 32925 ft 392 kts 50°
2026-04-26 01:42 10.48430 -77.52139 32920 ft 392 kts 50°
2026-04-26 01:43 10.51908 -77.47918 32928 ft 392 kts 50°
2026-04-26 01:43 10.55472 -77.43590 32933 ft 409 kts 50°
2026-04-26 01:43 10.57044 -77.41144 32901 ft 418 kts 68°
2026-04-26 01:44 10.57948 -77.38309 32928 ft 426 kts 74°
2026-04-26 01:44 10.58802 -77.35385 32904 ft 437 kts 74°
2026-04-26 01:44 10.59657 -77.32429 32906 ft 447 kts 74°
2026-04-26 01:45 10.61409 -77.26242 32905 ft 465 kts 75°
2026-04-26 01:45 10.63221 -77.19810 32904 ft 481 kts 75°
2026-04-26 01:46 10.65083 -77.13191 32926 ft 491 kts 75°
2026-04-26 01:46 10.66958 -77.06523 32924 ft 491 kts 75°
2026-04-26 01:47 10.68819 -76.99897 32925 ft 491 kts 75°
2026-04-26 01:47 10.70692 -76.93226 32925 ft 491 kts 75°
2026-04-26 01:48 10.72560 -76.86561 32923 ft 491 kts 75°
2026-04-26 01:48 10.74426 -76.79903 32926 ft 488 kts 75°
2026-04-26 01:49 10.76284 -76.73264 32927 ft 488 kts 75°
2026-04-26 01:49 10.78131 -76.66662 32927 ft 488 kts 75°
2026-04-26 01:50 10.79988 -76.60018 32930 ft 488 kts 75°
2026-04-26 01:50 10.81841 -76.53380 32930 ft 488 kts 75°
2026-04-26 01:51 10.83683 -76.46780 32929 ft 487 kts 75°
2026-04-26 01:51 10.85527 -76.40159 32932 ft 486 kts 75°
2026-04-26 01:52 10.87364 -76.33567 32209 ft 483 kts 75°
2026-04-26 01:52 10.88293 -76.30233 30848 ft 496 kts 74°
2026-04-26 01:52 10.89244 -76.26813 29407 ft 509 kts 73°
2026-04-26 01:52 10.90205 -76.23350 28468 ft 506 kts 73°
2026-04-26 01:53 10.91156 -76.19927 27654 ft 501 kts 73°
2026-04-26 01:53 10.92098 -76.16537 26861 ft 496 kts 73°
2026-04-26 01:53 10.93030 -76.13179 26121 ft 490 kts 73°
2026-04-26 01:53 10.93953 -76.09854 25389 ft 485 kts 73°
2026-04-26 01:54 10.94853 -76.06607 24676 ft 481 kts 73°
2026-04-26 01:54 10.95755 -76.03356 23962 ft 476 kts 74°
2026-04-26 01:54 10.96649 -76.00131 23195 ft 471 kts 74°
2026-04-26 01:54 10.97535 -75.96931 22411 ft 466 kts 74°
2026-04-26 01:55 10.98409 -75.93775 21686 ft 460 kts 73°
2026-04-26 01:55 10.99271 -75.90662 20998 ft 455 kts 74°
2026-04-26 01:55 11.00125 -75.87574 20313 ft 450 kts 74°
2026-04-26 01:55 11.00968 -75.84526 19634 ft 446 kts 74°
2026-04-26 01:56 11.01806 -75.81496 18961 ft 443 kts 74°
2026-04-26 01:56 11.02627 -75.78527 18306 ft 440 kts 74°
2026-04-26 01:56 11.03183 -75.75473 17388 ft 441 kts 88°
2026-04-26 01:56 11.02862 -75.72407 16808 ft 433 kts 104°
2026-04-26 01:57 11.01949 -75.69510 16197 ft 427 kts 109°
2026-04-26 01:57 11.00987 -75.66673 15587 ft 423 kts 109°
2026-04-26 01:57 11.00013 -75.63858 14981 ft 419 kts 109°
2026-04-26 01:57 10.99038 -75.61078 14383 ft 416 kts 110°
2026-04-26 01:58 10.98064 -75.58315 13790 ft 413 kts 110°
2026-04-26 01:58 10.97095 -75.55575 13144 ft 410 kts 110°
2026-04-26 01:58 10.96147 -75.52890 12545 ft 406 kts 110°
2026-04-26 01:58 10.95196 -75.50199 11993 ft 402 kts 109°
2026-04-26 01:59 10.94257 -75.47544 11553 ft 395 kts 109°
2026-04-26 01:59 10.93342 -75.44957 11346 ft 382 kts 109°
2026-04-26 01:59 10.92458 -75.42458 11152 ft 369 kts 110°
2026-04-26 01:59 10.91601 -75.40035 10959 ft 359 kts 110°
2026-04-26 02:00 10.90769 -75.37683 10774 ft 348 kts 110°
2026-04-26 02:00 10.89961 -75.35401 10607 ft 338 kts 110°
2026-04-26 02:00 10.89187 -75.33215 10439 ft 328 kts 110°
2026-04-26 02:00 10.88425 -75.31062 10280 ft 319 kts 110°
2026-04-26 02:01 10.87684 -75.28972 10133 ft 310 kts 110°
2026-04-26 02:01 10.86962 -75.26935 9968 ft 302 kts 110°
2026-04-26 02:01 10.86255 -75.24938 9675 ft 299 kts 110°
2026-04-26 02:01 10.85549 -75.22949 9312 ft 299 kts 110°
2026-04-26 02:02 10.84846 -75.20965 8976 ft 297 kts 110°
2026-04-26 02:02 10.84146 -75.18996 8652 ft 295 kts 110°
2026-04-26 02:02 10.83452 -75.17040 8340 ft 293 kts 110°
2026-04-26 02:02 10.82771 -75.15121 8032 ft 291 kts 110°
2026-04-26 02:03 10.82086 -75.13191 7717 ft 290 kts 110°
2026-04-26 02:03 10.81404 -75.11271 7405 ft 288 kts 110°
2026-04-26 02:03 10.80725 -75.09359 7093 ft 287 kts 110°
2026-04-26 02:03 10.80049 -75.07455 6782 ft 285 kts 110°
2026-04-26 02:04 10.79378 -75.05564 6477 ft 284 kts 110°
2026-04-26 02:04 10.78709 -75.03683 6147 ft 282 kts 110°
2026-04-26 02:04 10.78044 -75.01811 5833 ft 281 kts 110°
2026-04-26 02:04 10.77382 -74.99950 5511 ft 279 kts 110°
2026-04-26 02:05 10.76735 -74.98129 5212 ft 277 kts 110°
2026-04-26 02:05 10.76085 -74.96300 4809 ft 273 kts 110°
2026-04-26 02:05 10.75425 -74.94499 4259 ft 270 kts 115°
2026-04-26 02:05 10.74230 -74.93086 3966 ft 264 kts 149°
2026-04-26 02:06 10.72618 -74.92308 3896 ft 250 kts 151°
2026-04-26 02:06 10.71434 -74.91098 3749 ft 241 kts 114°
2026-04-26 02:06 10.71224 -74.89470 3604 ft 232 kts 78°
2026-04-26 02:06 10.71917 -74.88036 3449 ft 226 kts 47°
2026-04-26 02:07 10.73177 -74.87146 3271 ft 220 kts 20°
2026-04-26 02:07 10.74642 -74.86907 3059 ft 216 kts 357°
2026-04-26 02:07 10.76120 -74.87027 2896 ft 209 kts 354°
2026-04-26 02:07 10.77546 -74.87011 2681 ft 204 kts 15°
2026-04-26 02:08 10.78784 -74.86347 2447 ft 201 kts 35°
2026-04-26 02:08 10.79903 -74.85514 2250 ft 196 kts 36°
2026-04-26 02:08 10.80961 -74.84695 2168 ft 186 kts 37°
2026-04-26 02:08 10.81957 -74.83904 2134 ft 182 kts 37°
2026-04-26 02:09 10.82972 -74.83101 1632 ft 183 kts 34°
2026-04-26 02:09 10.83968 -74.82390 1224 ft 166 kts 37°
2026-04-26 02:09 10.84777 -74.81670 935 ft 149 kts 41°
2026-04-26 02:09 10.85540 -74.81021 658 ft 136 kts 34°
2026-04-26 02:10 10.86250 -74.80433 493 ft 130 kts 39°
2026-04-26 02:10 10.86926 -74.79822 422 ft 131 kts 39°
2026-04-26 02:10 10.87629 -74.79230 218 ft 131 kts 39°
2026-04-26 02:10 10.88312 -74.78639 100 ft 124 kts 36°
2026-04-26 02:11 10.88833 -74.78202 90 ft 71 kts 41°
2026-04-26 02:11 10.89135 -74.77944 84 ft 54 kts 39°
2026-04-26 02:11 10.89375 -74.77709 68 ft 39 kts 66°
2026-04-26 02:11 10.89365 -74.77498 67 ft 21 kts 62°
2026-04-26 02:12 10.89404 -74.77462 69 ft 2 kts 39°
2026-04-26 02:12 10.89442 -74.77427 73 ft 16 kts 43°
2026-04-26 02:12 10.89573 -74.77308 70 ft 35 kts 40°
2026-04-26 02:12 10.89823 -74.77145 65 ft 50 kts 26°
2026-04-26 02:13 10.89954 -74.77200 59 ft 20 kts 271°
2026-04-26 02:13 10.89879 -74.77304 66 ft 22 kts 219°
2026-04-26 02:13 10.89697 -74.77458 66 ft 40 kts 220°
2026-04-26 02:13 10.89478 -74.77644 69 ft 42 kts 218°
2026-04-26 02:14 10.89386 -74.77659 76 ft 4 kts 140°
2026-04-26 02:14 10.89382 -74.77635 76 ft 7 kts 81°
2026-04-26 02:14 10.89335 -74.77540 69 ft 22 kts 165°
2026-04-26 02:14 10.89127 -74.77497 72 ft 38 kts 196°
2026-04-26 02:15 10.88961 -74.77627 83 ft 36 kts 221°
2026-04-26 02:15 10.88869 -74.77691 84 ft 8 kts 179°
2026-04-26 02:15 10.88838 -74.77670 84 ft 8 kts 133°
2026-04-26 02:15 10.88826 -74.77656 83 ft 0 kts 128°